Location: Austin
(30.3000°N, 97.7500°W)
Time: 23:27:53
(UTC-05:00)

Cosmos 2151 Rocket - Pass Details

Date: 06 May 2026
Orbit: 611 x 636 km, 82.5° (Epoch: 13 May)

Event Time Altitude Azimuth Distance (km) Brightness Sun altitude
Exits shadow 21:27:44 19° 161° (SSE) 1,468 5.0 -15.5°
Maximum altitude 21:30:37 49° 93° (E) 790 3.7 -16.1°
Drops below altitude 10° 21:34:49 10° 18° (NNE) 1,968 6.3 -16.8°
Sets 21:37:05 0° 13° (NNE) 2,876 7.2 -17.3°
